| time (UTC) | temp F | wind direction | speed MPH | gust MPH | rain 1hr in | rain 24hr in | rain mn in | humidity % | barometer mb |
| 20260504035119 | 47 | 163 | 0.0 | 0.0 | 0.00 | 0.00 | 0.00 | 69 | 1016.7 |
| 20260504034621 | 48 | 163 | 0.0 | 0.0 | 0.00 | 0.00 | 0.00 | 70 | 1016.7 |
| 20260504034125 | 48 | 163 | 0.0 | 0.0 | 0.00 | 0.00 | 0.00 | 69 | 1016.7 |
| 20260504033117 | 48 | 163 | 0.0 | 0.0 | 0.00 | 0.00 | 0.00 | 68 | 1016.6 |
| 20260504032617 | 48 | 163 | 0.0 | 0.0 | 0.00 | 0.00 | 0.00 | 69 | 1016.8 |
| 20260504032110 | 48 | 163 | 0.0 | 0.0 | 0.00 | 0.00 | 0.00 | 70 | 1016.7 |
| 20260504031609 | 48 | 163 | 0.0 | 0.0 | 0.00 | 0.00 | 0.00 | 72 | 1016.7 |
| 20260504031107 | 48 | 163 | 0.0 | 0.0 | 0.00 | 0.00 | 0.00 | 71 | 1016.7 |
| 20260504030610 | 48 | 163 | 0.0 | 0.0 | 0.00 | 0.00 | 0.00 | 69 | 1016.7 |
| 20260504030134 | 48 | 163 | 0.0 | 0.0 | 0.00 | 0.00 | 0.00 | 69 | 1016.7 |
| 20260504025110 | 49 | 163 | 0.0 | 0.0 | 0.00 | 0.00 | 0.00 | 68 | 1016.7 |
| 20260504024605 | 49 | 163 | 0.0 | 0.0 | 0.00 | 0.00 | 0.00 | 68 | 1016.8 |
| 20260504024101 | 49 | 163 | 0.0 | 0.0 | 0.00 | 0.00 | 0.00 | 69 | 1016.8 |
| 20260504022604 | 49 | 163 | 0.0 | 0.0 | 0.00 | 0.00 | 0.00 | 65 | 1016.7 |
| 20260504022105 | 49 | 163 | 0.0 | 0.0 | 0.00 | 0.00 | 0.00 | 64 | 1016.7 |
| 20260504021105 | 50 | 163 | 0.0 | 0.0 | 0.00 | 0.00 | 0.00 | 66 | 1016.7 |
| 20260504020603 | 50 | 163 | 0.0 | 0.0 | 0.00 | 0.00 | 0.00 | 65 | 1016.7 |
| 20260504020050 | 50 | 163 | 0.0 | 0.0 | 0.00 | 0.00 | 0.00 | 63 | 1016.7 |
| 20260504015549 | 50 | 163 | 0.0 | 0.0 | 0.00 | 0.00 | 0.00 | 65 | 1016.6 |
| 20260504014537 | 50 | 163 | 0.0 | 0.0 | 0.00 | 0.00 | 0.00 | 65 | 1016.6 |
| 20260504013535 | 50 | 163 | 0.0 | 0.0 | 0.00 | 0.00 | 0.00 | 63 | 1016.5 |
| 20260504013031 | 51 | 163 | 0.0 | 0.0 | 0.00 | 0.00 | 0.00 | 63 | 1016.4 |
| 20260504012553 | 51 | 163 | 0.0 | 0.0 | 0.00 | 0.00 | 0.00 | 63 | 1016.4 |
| 20260504011521 | 51 | 163 | 0.0 | 0.0 | 0.00 | 0.00 | 0.00 | 59 | 1016.3 |
| 20260504010527 | 52 | 163 | 0.0 | 0.0 | 0.00 | 0.00 | 0.00 | 60 | 1016.2 |
| 20260504010024 | 52 | 163 | 0.0 | 0.0 | 0.00 | 0.00 | 0.00 | 59 | 1016.2 |
| 20260504005519 | 52 | 163 | 0.0 | 0.0 | 0.00 | 0.00 | 0.00 | 58 | 1016.1 |
| 20260504005017 | 53 | 163 | 0.0 | 0.0 | 0.00 | 0.00 | 0.00 | 58 | 1016.2 |
| 20260504004515 | 53 | 163 | 0.0 | 0.0 | 0.00 | 0.00 | 0.00 | 56 | 1016.1 |
| 20260504004025 | 54 | 163 | 0.0 | 0.0 | 0.00 | 0.00 | 0.00 | 54 | 1016.0 |
| 20260504003512 | 54 | 163 | 0.0 | 0.0 | 0.00 | 0.00 | 0.00 | 54 | 1016.0 |
| 20260504002513 | 55 | 163 | 0.0 | 0.0 | 0.00 | 0.00 | 0.00 | 52 | 1015.7 |
| 20260504002011 | 55 | 163 | 0.0 | 0.0 | 0.00 | 0.00 | 0.00 | 50 | 1015.7 |
| 20260504001510 | 55 | 163 | 0.0 | 0.0 | 0.00 | 0.00 | 0.00 | 50 | 1015.6 |
| 20260504001006 | 56 | 163 | 0.0 | 0.0 | 0.00 | 0.00 | 0.00 | 49 | 1015.4 |
| 20260504000513 | 56 | 163 | 0.0 | 0.0 | 0.00 | 0.00 | 0.00 | 49 | 1015.5 |
| 20260503235503 | 57 | 163 | 0.0 | 0.0 | 0.00 | 0.00 | 0.00 | 48 | 1015.5 |
| 20260503235020 | 57 | 163 | 0.0 | 1.0 | 0.00 | 0.00 | 0.00 | 46 | 1015.4 |
| 20260503234010 | 58 | 163 | 0.0 | 1.0 | 0.00 | 0.00 | 0.00 | 45 | 1015.4 |
| 20260503233507 | 58 | 163 | 0.0 | 1.0 | 0.00 | 0.00 | 0.00 | 45 | 1015.3 |
| 20260503233008 | 58 | 163 | 0.0 | 1.0 | 0.00 | 0.00 | 0.00 | 44 | 1015.3 |
| 20260503232010 | 58 | 213 | 0.0 | 2.0 | 0.00 | 0.00 | 0.00 | 44 | 1015.4 |
| 20260503231505 | 58 | 207 | 0.0 | 2.0 | 0.00 | 0.00 | 0.00 | 43 | 1015.3 |
| 20260503231007 | 58 | 168 | 0.0 | 1.0 | 0.00 | 0.00 | 0.00 | 45 | 1015.2 |
| 20260503230503 | 58 | 200 | 1.0 | 3.0 | 0.00 | 0.00 | 0.00 | 43 | 1015.1 |
| 20260503230003 | 58 | 202 | 1.0 | 4.0 | 0.00 | 0.00 | 0.00 | 44 | 1015.1 |
| 20260503225507 | 58 | 113 | 1.0 | 4.0 | 0.00 | 0.00 | 0.00 | 41 | 1015.0 |
| 20260503225003 | 58 | 196 | 1.0 | 6.0 | 0.00 | 0.00 | 0.00 | 43 | 1015.2 |
| 20260503224503 | 59 | 153 | 1.0 | 6.0 | 0.00 | 0.00 | 0.00 | 41 | 1015.2 |
| 20260503223505 | 59 | 216 | 1.0 | 5.0 | 0.00 | 0.00 | 0.00 | 41 | 1015.2 |
| 20260503223010 | 59 | 136 | 1.0 | 5.0 | 0.00 | 0.00 | 0.00 | 41 | 1015.1 |
| 20260503222502 | 59 | 157 | 1.0 | 5.0 | 0.00 | 0.00 | 0.00 | 43 | 1015.0 |
| 20260503221004 | 59 | 185 | 2.0 | 9.0 | 0.00 | 0.00 | 0.00 | 41 | 1015.1 |
| 20260503220506 | 59 | 152 | 1.0 | 5.0 | 0.00 | 0.00 | 0.00 | 42 | 1015.1 |
| 20260503220003 | 59 | 140 | 1.0 | 7.0 | 0.00 | 0.00 | 0.00 | 42 | 1015.2 |
| 20260503215501 | 59 | 198 | 1.0 | 7.0 | 0.00 | 0.00 | 0.00 | 43 | 1015.2 |
| 20260503214504 | 59 | 150 | 1.0 | 9.0 | 0.00 | 0.00 | 0.00 | 41 | 1015.2 |
| 20260503214006 | 59 | 159 | 1.0 | 9.0 | 0.00 | 0.00 | 0.00 | 41 | 1015.1 |
| 20260503213003 | 59 | 159 | 2.0 | 6.0 | 0.00 | 0.00 | 0.00 | 42 | 1015.2 |
| 20260503212506 | 59 | 192 | 2.0 | 6.0 | 0.00 | 0.00 | 0.00 | 41 | 1015.1 |
| 20260503211503 | 59 | 120 | 2.0 | 7.0 | 0.00 | 0.00 | 0.00 | 42 | 1015.1 |
| 20260503211003 | 59 | 206 | 1.0 | 7.0 | 0.00 | 0.00 | 0.00 | 41 | 1014.9 |
| 20260503210502 | 59 | 220 | 1.0 | 5.0 | 0.00 | 0.00 | 0.00 | 43 | 1015.0 |
| 20260503210002 | 59 | 181 | 2.0 | 6.0 | 0.00 | 0.00 | 0.00 | 45 | 1014.9 |
| 20260503205504 | 58 | 189 | 2.0 | 7.0 | 0.00 | 0.00 | 0.00 | 41 | 1015.0 |
| 20260503204959 | 58 | 163 | 2.0 | 8.0 | 0.00 | 0.00 | 0.00 | 40 | 1014.8 |
| 20260503204458 | 59 | 190 | 2.0 | 9.0 | 0.00 | 0.00 | 0.00 | 42 | 1015.0 |
| 20260503203947 | 59 | 155 | 2.0 | 9.0 | 0.00 | 0.00 | 0.00 | 42 | 1014.7 |
| 20260503203448 | 59 | 159 | 2.0 | 8.0 | 0.00 | 0.00 | 0.00 | 43 | 1014.9 |
| 20260503202948 | 59 | 198 | 1.0 | 7.0 | 0.00 | 0.00 | 0.00 | 42 | 1014.7 |
| 20260503202446 | 58 | 97 | 2.0 | 7.0 | 0.00 | 0.00 | 0.00 | 44 | 1014.8 |
| 20260503201949 | 58 | 156 | 2.0 | 9.0 | 0.00 | 0.00 | 0.00 | 41 | 1014.8 |
| 20260503201449 | 58 | 166 | 2.0 | 10.0 | 0.00 | 0.00 | 0.00 | 41 | 1014.8 |
| 20260503200451 | 58 | 153 | 1.0 | 7.0 | 0.00 | 0.00 | 0.00 | 43 | 1015.1 |
| 20260503195948 | 58 | 157 | 2.0 | 8.0 | 0.00 | 0.00 | 0.00 | 43 | 1015.0 |
| 20260503195450 | 58 | 211 | 2.0 | 8.0 | 0.00 | 0.00 | 0.00 | 42 | 1015.0 |
| 20260503194946 | 58 | 207 | 2.0 | 7.0 | 0.00 | 0.00 | 0.00 | 42 | 1015.0 |
| 20260503194451 | 58 | 124 | 2.0 | 7.0 | 0.00 | 0.00 | 0.00 | 44 | 1015.0 |
| 20260503193946 | 58 | 149 | 2.0 | 6.0 | 0.00 | 0.00 | 0.00 | 44 | 1015.1 |
| 20260503193445 | 58 | 205 | 2.0 | 9.0 | 0.00 | 0.00 | 0.00 | 44 | 1015.1 |
| 20260503192949 | 58 | 199 | 2.0 | 9.0 | 0.00 | 0.00 | 0.00 | 46 | 1015.0 |
| 20260503191938 | 58 | 196 | 2.0 | 8.0 | 0.00 | 0.00 | 0.00 | 43 | 1015.3 |
| 20260503191433 | 57 | 124 | 2.0 | 7.0 | 0.00 | 0.00 | 0.00 | 47 | 1015.3 |
| 20260503190927 | 57 | 213 | 2.0 | 6.0 | 0.00 | 0.00 | 0.00 | 44 | 1015.2 |
| 20260503190420 | 57 | 134 | 2.0 | 6.0 | 0.00 | 0.00 | 0.00 | 43 | 1015.3 |
| 20260503185915 | 57 | 148 | 2.0 | 7.0 | 0.00 | 0.00 | 0.00 | 43 | 1015.4 |
| 20260503185405 | 57 | 170 | 1.0 | 7.0 | 0.00 | 0.00 | 0.00 | 43 | 1015.5 |
| 20260503184910 | 57 | 250 | 1.0 | 5.0 | 0.00 | 0.00 | 0.00 | 47 | 1015.2 |
| 20260503184408 | 57 | 115 | 2.0 | 7.0 | 0.00 | 0.00 | 0.00 | 47 | 1015.5 |
| 20260503183409 | 57 | 178 | 2.0 | 7.0 | 0.00 | 0.00 | 0.00 | 46 | 1015.5 |
| 20260503182406 | 57 | 167 | 2.0 | 7.0 | 0.00 | 0.00 | 0.00 | 45 | 1015.7 |
| 20260503181902 | 57 | 165 | 2.0 | 7.0 | 0.00 | 0.00 | 0.00 | 49 | 1015.6 |
| 20260503181405 | 57 | 149 | 1.0 | 6.0 | 0.00 | 0.00 | 0.00 | 48 | 1015.7 |
| 20260503180903 | 56 | 149 | 1.0 | 5.0 | 0.00 | 0.00 | 0.00 | 48 | 1015.7 |
| 20260503180404 | 56 | 157 | 1.0 | 5.0 | 0.00 | 0.00 | 0.00 | 50 | 1015.5 |
| 20260503175903 | 56 | 203 | 2.0 | 6.0 | 0.00 | 0.00 | 0.00 | 47 | 1015.6 |
| 20260503174903 | 55 | 196 | 2.0 | 8.0 | 0.00 | 0.00 | 0.00 | 48 | 1015.5 |
| 20260503173905 | 55 | 188 | 2.0 | 8.0 | 0.00 | 0.00 | 0.00 | 49 | 1015.5 |
| 20260503173403 | 55 | 182 | 2.0 | 7.0 | 0.00 | 0.00 | 0.00 | 50 | 1015.5 |
| 20260503172403 | 55 | 202 | 1.0 | 9.0 | 0.00 | 0.00 | 0.00 | 49 | 1015.7 |
| 20260503171901 | 55 | 158 | 2.0 | 6.0 | 0.00 | 0.00 | 0.00 | 51 | 1015.6 |
| 20260503170907 | 54 | 231 | 2.0 | 8.0 | 0.00 | 0.00 | 0.00 | 50 | 1015.7 |
| 20260503170402 | 54 | 213 | 2.0 | 8.0 | 0.00 | 0.00 | 0.00 | 52 | 1015.7 |
| 20260503150835 | 50 | 177 | 2.0 | 10.0 | 0.00 | 0.00 | 0.00 | 60 | 1016.0 |
| 20260503150343 | 50 | 183 | 2.0 | 10.0 | 0.00 | 0.00 | 0.00 | 59 | 1016.1 |
| 20260503130253 | 48 | 206 | 1.0 | 5.0 | 0.00 | 0.00 | 0.00 | 69 | 1015.9 |
| 20260503110739 | 45 | 189 | 1.0 | 4.0 | 0.00 | 0.00 | 0.00 | 74 | 1014.5 |
| 20260503110239 | 44 | 176 | 1.0 | 4.0 | 0.00 | 0.00 | 0.00 | 75 | 1014.5 |
| 20260503100237 | 44 | 153 | 0.0 | 0.0 | 0.00 | 0.00 | 0.00 | 76 | 1013.5 |
| 20260503090233 | 45 | 221 | 0.0 | 0.0 | 0.00 | 0.00 | 0.00 | 74 | 1012.8 |
| 20260503081225 | 46 | 192 | 0.0 | 0.0 | 0.00 | 0.00 | 0.00 | 72 | 1012.6 |
| 20260503080726 | 46 | 192 | 0.0 | 0.0 | 0.00 | 0.00 | 0.00 | 72 | 1012.5 |
| 20260503072208 | 47 | 195 | 0.0 | 0.0 | 0.00 | 0.00 | 0.00 | 69 | 1012.3 |
| 20260503071205 | 48 | 211 | 0.0 | 0.0 | 0.00 | 0.00 | 0.00 | 69 | 1012.3 |
| 20260503070702 | 48 | 211 | 0.0 | 0.0 | 0.00 | 0.00 | 0.00 | 67 | 1012.2 |
| 20260503070157 | 49 | 202 | 0.0 | 2.0 | 0.00 | 0.00 | 0.00 | 66 | 1012.1 |
| 20260503060136 | 51 | 215 | 1.0 | 5.0 | 0.00 | 0.00 | 0.00 | 61 | 1012.2 |
| 20260503054634 | 51 | 198 | 1.0 | 4.0 | 0.00 | 0.00 | 0.00 | 65 | 1011.9 |
| 20260503054136 | 52 | 196 | 1.0 | 4.0 | 0.00 | 0.00 | 0.00 | 65 | 1012.0 |
| 20260503053633 | 52 | 209 | 1.0 | 4.0 | 0.00 | 0.00 | 0.00 | 65 | 1011.9 |
| 20260503053133 | 52 | 189 | 1.0 | 6.0 | 0.00 | 0.00 | 0.00 | 65 | 1012.1 |
| 20260503052631 | 52 | 224 | 1.0 | 6.0 | 0.00 | 0.00 | 0.00 | 65 | 1011.9 |
| 20260503052135 | 52 | 205 | 1.0 | 5.0 | 0.00 | 0.00 | 0.00 | 65 | 1011.8 |
| 20260503051630 | 52 | 210 | 2.0 | 6.0 | 0.00 | 0.00 | 0.00 | 64 | 1011.9 |
| 20260503051132 | 53 | 222 | 2.0 | 6.0 | 0.00 | 0.00 | 0.00 | 63 | 1011.8 |
| 20260503050130 | 53 | 200 | 1.0 | 8.0 | 0.00 | 0.00 | 0.00 | 63 | 1012.0 |
| 20260503045633 | 53 | 205 | 1.0 | 5.0 | 0.00 | 0.00 | 0.00 | 63 | 1012.2 |
| 20260503045129 | 53 | 205 | 1.0 | 5.0 | 0.00 | 0.00 | 0.00 | 63 | 1012.1 |
| 20260503044633 | 53 | 206 | 1.0 | 3.0 | 0.00 | 0.00 | 0.00 | 63 | 1012.1 |
| 20260503044126 | 53 | 209 | 1.0 | 3.0 | 0.00 | 0.00 | 0.00 | 61 | 1012.1 |
| 20260503043643 | 53 | 204 | 1.0 | 6.0 | 0.00 | 0.00 | 0.00 | 61 | 1012.1 |
| 20260503042626 | 53 | 203 | 1.0 | 3.0 | 0.00 | 0.00 | 0.00 | 60 | 1012.3 |
| 20260503042125 | 53 | 202 | 1.0 | 8.0 | 0.00 | 0.00 | 0.00 | 59 | 1012.3 |
| 20260503041623 | 53 | 204 | 1.0 | 8.0 | 0.00 | 0.00 | 0.00 | 60 | 1012.3 |
| 20260503041124 | 53 | 187 | 1.0 | 3.0 | 0.00 | 0.00 | 0.00 | 61 | 1012.3 |
| 20260503040625 | 53 | 191 | 1.0 | 4.0 | 0.00 | 0.00 | 0.00 | 61 | 1012.2 |
| 20260503040125 | 53 | 201 | 1.0 | 4.0 | 0.00 | 0.00 | 0.00 | 59 | 1012.3 |
| 20260503035623 | 53 | 202 | 1.0 | 3.0 | 0.00 | 0.00 | 0.00 | 59 | 1012.7 |